New River MCAS, NC

2:41 AM EDT on March 24, 2017 (GMT -0400)
New River Marine Corps Air Station

Weather History for KNCA - March, 2015

Change the Weather History Date:

Friday, March 20, 2015

  Actual Average Record
Temperature  
Mean Temperature 56 °F -  
Max Temperature 66 °F 64 °F 81 °F (2002)
Min Temperature 45 °F 41 °F 32 °F (2017)
Degree Days  
Heating Degree Days 10    
Growing Degree Days 6 (Base 50)    
Moisture  
Dew Point 51 °F    
Average Humidity 88    
Maximum Humidity 97    
Minimum Humidity 61    
Precipitation  
Precipitation 0.57 in - - ()
Sea Level Pressure  
Sea Level Pressure 30.08 in    
Wind  
Wind Speed 9 mph (North)    
Max Wind Speed 13 mph    
Max Gust Speed -    
Visibility 7 miles    
Events Rain    
Averages and records for this station are not official NWS values.
T = Trace of Precipitation, MM = Missing Value Source: NWS Daily Summary

Daily Weather History Graph

Daily Weather History Graph

Search for Another Location

Airport or City:

Trip Planner

Search our weather history database for the weather conditions in past years. The results will help you decide how hot, cold, wet, or windy it might be!

Date:

Astronomy

Mar. 20, 2015 Rise Set
Actual Time 7:13 AM EDT 7:21 PM EDT
Civil Twilight 6:48 AM EDT 7:46 PM EDT
Nautical Twilight 6:19 AM EDT 8:15 PM EDT
Astronomical Twilight 5:49 AM EDT 8:45 PM EDT
Moon 7:17 AM EDT (3/20) 7:57 PM EDT (3/20)
Length of Visible Light 12h 57m
Length of Day
12h 07m
New Moon, 0% of the Moon is Illuminated
Mar 20
New Moon
Mar 27
First Quarter
Apr 4
Full
Apr 11
Last Quarter
Apr 18
New

Hourly Weather History & Observations

Time (EDT) Temp. Windchill Dew Point Humidity Pressure Visibility Wind Dir Wind Speed Gust Speed Precip Events Conditions
12:06 AM 45.0 °F 38.9 °F 42.1 °F 90% 30.21 in 6.0 mi ENE 12.7 mph - 0.00 in Rain Light Rain
12:16 AM 45.0 °F 39.7 °F 42.1 °F 90% 30.21 in 10.0 mi ENE 10.4 mph - 0.00 in Rain Light Rain
12:41 AM 46.0 °F 40.6 °F 43.0 °F 89% 30.19 in 9.0 mi East 11.5 mph - 0.00 in   Overcast
12:56 AM 46.0 °F 41.0 °F 44.1 °F 93% 30.19 in 9.0 mi East 10.4 mph - 0.00 in   Overcast
1:41 AM 48.0 °F - 45.0 °F 89% 30.17 in 6.0 mi East 12.7 mph - 0.02 in Rain Light Rain
1:56 AM 48.0 °F - 45.0 °F 89% 30.17 in 4.0 mi East 12.7 mph - 0.04 in Rain Rain
2:21 AM 48.0 °F - 46.0 °F 93% 30.15 in 5.0 mi East 12.7 mph - 0.04 in Rain Light Rain
2:56 AM 48.9 °F - 46.9 °F 93% 30.14 in 7.0 mi East 11.5 mph - 0.07 in Rain Light Rain
3:14 AM 48.9 °F - 46.9 °F 93% 30.13 in 5.0 mi ENE 9.2 mph - 0.02 in Rain Rain
3:56 AM 50.0 °F - 48.9 °F 96% 30.11 in 6.0 mi East 6.9 mph - 0.09 in Rain Light Rain
4:07 AM 51.1 °F - 48.9 °F 92% 30.09 in 4.0 mi East 10.4 mph - 0.03 in Rain Light Rain
4:21 AM 51.1 °F - 48.9 °F 92% 30.09 in 4.0 mi ENE 6.9 mph - 0.07 in Rain Light Rain
4:56 AM 51.1 °F - 50.0 °F 96% 30.09 in 3.0 mi ENE 9.2 mph - 0.11 in Rain Rain
5:11 AM 52.0 °F - 51.1 °F 97% 30.08 in 2.5 mi NE 5.8 mph - 0.05 in Rain Rain
5:19 AM 51.1 °F - 50.0 °F 96% 30.08 in 4.0 mi North 6.9 mph - 0.06 in Rain Rain
5:56 AM 52.0 °F - 50.0 °F 93% 30.09 in 7.0 mi North 8.1 mph - 0.10 in Rain Light Rain
6:05 AM 52.0 °F - 51.1 °F 97% 30.08 in 4.0 mi ENE 5.8 mph - 0.01 in Rain Light Rain
6:39 AM 53.1 °F - 51.1 °F 93% 30.07 in 4.0 mi ENE 4.6 mph - 0.04 in Rain Rain
6:56 AM 54.0 °F - 53.1 °F 97% 30.07 in 3.0 mi East 4.6 mph - 0.06 in Rain Rain
7:07 AM 54.0 °F - 53.1 °F 97% 30.06 in 8.0 mi East 5.8 mph - 0.01 in Rain Light Rain
7:34 AM 55.0 °F - 54.0 °F 96% 30.06 in 9.0 mi Calm Calm - 0.01 in Rain Light Rain
7:56 AM 55.0 °F - 53.1 °F 93% 30.07 in 9.0 mi WNW 6.9 mph - 0.01 in Rain Light Rain
8:14 AM 55.0 °F - 54.0 °F 96% 30.06 in 1.8 mi Calm Calm - 0.04 in Rain Light Rain
8:25 AM 54.0 °F - 53.1 °F 97% 30.06 in 3.0 mi Calm Calm - 0.04 in Rain Light Rain
8:56 AM 55.0 °F - 54.0 °F 96% 30.07 in 1.0 mi WNW 9.2 mph - 0.09 in Rain Heavy Rain
9:02 AM 54.0 °F - 53.1 °F 97% 30.07 in 1.2 mi WNW 11.5 mph - 0.00 in Rain Light Rain
9:06 AM 54.0 °F - 53.1 °F 97% 30.07 in 3.0 mi WNW 9.2 mph - 0.00 in Rain Light Rain
9:32 AM 54.0 °F - 52.0 °F 93% 30.08 in 2.5 mi NW 10.4 mph - 0.00 in   Overcast
9:43 AM 54.0 °F - 52.0 °F 93% 30.07 in 5.0 mi WNW 6.9 mph - 0.00 in   Overcast
9:56 AM 54.0 °F - 52.0 °F 93% 30.08 in 10.0 mi WNW 6.9 mph - 0.00 in   Overcast
10:42 AM 54.0 °F - 52.0 °F 93% 30.07 in 9.0 mi NW 8.1 mph - N/A   Overcast
10:56 AM 53.1 °F - 52.0 °F 96% 30.08 in 10.0 mi NW 9.2 mph - N/A   Overcast
11:09 AM 53.1 °F - 52.0 °F 96% 30.07 in 10.0 mi NW 9.2 mph - N/A   Overcast
11:56 AM 54.0 °F - 51.1 °F 90% 30.08 in 10.0 mi NW 9.2 mph - N/A   Overcast
12:24 PM 54.0 °F - 52.0 °F 93% 30.06 in 10.0 mi NW 9.2 mph - N/A   Overcast
12:56 PM 57.0 °F - 53.1 °F 87% 30.06 in 10.0 mi WNW 9.2 mph - N/A   Overcast
1:12 PM 59.0 °F - 53.1 °F 81% 30.04 in 10.0 mi WNW 9.2 mph - N/A   Mostly Cloudy
1:39 PM 60.1 °F - 53.1 °F 78% 30.03 in 10.0 mi WNW 12.7 mph - N/A   Scattered Clouds
1:48 PM 60.1 °F - 53.1 °F 78% 30.03 in 10.0 mi NW 12.7 mph - N/A   Mostly Cloudy
1:56 PM 60.1 °F - 53.1 °F 78% 30.03 in 10.0 mi WNW 10.4 mph - N/A   Scattered Clouds
2:56 PM 64.0 °F - 53.1 °F 67% 30.01 in 10.0 mi NW 11.5 mph - N/A   Unknown
3:56 PM 64.9 °F - 53.1 °F 65% 29.99 in 10.0 mi NW 6.9 mph - N/A   Clear
4:56 PM 66.9 °F - 53.1 °F 61% 29.99 in 10.0 mi NW 9.2 mph - N/A   Clear
5:56 PM 64.9 °F - 53.1 °F 65% 29.99 in 10.0 mi NW 9.2 mph - N/A   Clear
6:56 PM 62.1 °F - 52.0 °F 70% 30.00 in 10.0 mi NW 8.1 mph - N/A   Overcast
7:56 PM 60.1 °F - 51.1 °F 72% 30.02 in 10.0 mi NW 11.5 mph - N/A   Partly Cloudy
8:56 PM 57.9 °F - 51.1 °F 78% 30.04 in 10.0 mi NW 9.2 mph - N/A   Scattered Clouds
9:56 PM 57.0 °F - 50.0 °F 77% 30.05 in 10.0 mi NW 6.9 mph - N/A   Clear
10:56 PM 55.9 °F - 48.9 °F 77% 30.07 in 10.0 mi NNW 9.2 mph - N/A   Scattered Clouds
11:56 PM 54.0 °F - 48.0 °F 80% 30.08 in 10.0 mi NNW 11.5 mph - N/A   Clear